Regional Weather Roundup
Issued by NWS

Home | Current Version | Previous Version | Graphics & Text | Print | Product List | Glossary On
Versions: 1 2 3 4 5 6 7 8 9 10 11 12 13 14 15 16 17 18 19 20 21 22 23 24 25 26 27
000
ASUS45 KBOU 061107
RWRCO

WEATHER ROUNDUP FOR COLORADO
NATIONAL WEATHER SERVICE DENVER/BOULDER CO
400 AM MST TUE DEC 06 2016

NOTE: "FAIR" INDICATES FEW OR NO CLOUDS BELOW 12000 FEET WITH NO
SIGNIFICANT WEATHER AND/OR OBSTRUCTIONS TO VISIBILITY.

COZ001>005-013-030-031-061200-
...NORTHWEST COLORADO...

CITY           SKY/WX    TMP DP  RH WIND       PRES   REMARKS
CRAIG          FAIR      -5 -11  75 SW3       29.95F
HAYDEN         FAIR       0 -11  60 SE15      29.91F WCI -20
MEEKER         CLOUDY     9  -1  64 CALM      29.92F
MOUNT WERNER   NOT AVBL
STEAMBOAT SPGS FAIR      -7 -12  76 NW5       29.90F WCI -18
WALDEN           N/A     -9 -20  59 SE7       29.85S WCI -24
$$

COZ006>008-011-061200-
...WEST CENTRAL VALLEYS...

CITY           SKY/WX    TMP DP  RH WIND       PRES   REMARKS
GRAND JUNCTION FAIR      19   8  62 E8        29.93F WCI   9
MONTROSE       FAIR      17   9  70 S7        29.96F WCI   8
EAGLE          FLURRIES  19   9  65 E7        29.92F WCI  10
RIFLE          CLOUDY    23   4  44 W3        29.93F
DELTA          NOT AVBL
NUCLA          FAIR      19  12  73 SE7       29.92F WCI  10
$$

COZ017>023-064>068-061200-
...SOUTHWEST COLORADO...

CITY           SKY/WX    TMP DP  RH WIND       PRES   REMARKS
DURANGO        FAIR      19  13  77 NE5       29.89F WCI  12
CORTEZ         FAIR      21  17  84 E5        29.89S WCI  15
PAGOSA SPRINGS FAIR      17  13  83 CALM      29.90S
TELLURIDE      MOCLDY    20   3  48 SE6       29.89S WCI  12
WOLF CREEK PAS MOCLDY     9   9 100 SW20G26   29.87F WCI -11
$$

COZ009-010-012-014-032>034-037-058>063-061200-
...CENTRAL COLORADO...

CITY           SKY/WX    TMP DP  RH WIND       PRES   REMARKS
ASPEN          CLOUDY    15   7  70 CALM      29.84F
BUENA VISTA    FAIR      19   3  50 N6        29.78F WCI  11
COPPER MTN       N/A      5  -4  66 MISG      29.70F
BERTHOUD PASS  LGT SNOW  -4 -15  59 W23G39    29.63R WCI -29
COTTONWOOD PAS FAIR      21   5  49 SW7       29.75S WCI  13
GUNNISON       FAIR       6   1  80 N3        29.89S
KREMMLING      CLOUDY     9  -4  56 CALM      29.90F
LEADVILLE      CLOUDY     8   1  73 VRB6      29.75F WCI  -2
MONARCH PASS   CLOUDY     5   1  85 SW30G38   29.84S WCI -19
SALIDA         FAIR      17  -1  46 SE10G18   29.90S WCI   5
SUNLIGHT       LGT SNOW   5   1  85 SW10G20   29.80F WCI -10
WILKERSON PASS FAIR       9   0  66 SW9G21    29.74S WCI  -5
$$

COZ069>075-061200-
...SAN LUIS VALLEY/SANGRE DE CRISTO MOUNTAINS...

CITY           SKY/WX    TMP DP  RH WIND       PRES   REMARKS
ALAMOSA        FAIR       6   2  83 VRB6      29.85S WCI  -4
LA VETA PASS   FAIR      19   3  49 N8G24     29.82S WCI   9
SAGUACHE       FAIR      12   5  73 NW3       29.85S
$$

COZ035-036-038>040-061200-
...NORTHERN COLORADO FRONT RANGE...

CITY           SKY/WX    TMP DP  RH WIND       PRES   REMARKS
DENVER INTL AP FAIR       8  -1  66 S13       29.93S WCI  -8
DMNS CITY PARK   N/A     16  -5  37 SE6       29.93F WCI   8
AURORA         PTCLDY     9  -2  60 S9        29.93F WCI  -4
FRONT RANGE AP FAIR      12   3  67 SE9       29.93F WCI   0
ERIE MUNI ARPT FAIR      17  -6  36 S7        29.94S WCI   7
BOULDER MUN AP FAIR      19   0  42 SE7       29.92S WCI  10
CENTENNIAL     FAIR      14  -4  44 S10       29.91F WCI   1
BROOMFIELD     FAIR      18  -4  38 SE8       29.92S WCI   7
FORT COLLINS   FAIR      19 -17  19 CALM      29.93F
LONGMONT       FAIR      17  -1  44 E3        29.96S
$$

COZ041-046-047-076>085-087-088-061200-
...PIKES PEAK/PALMER DIVIDE AND SOUTHERN FOOTHILLS...

CITY           SKY/WX    TMP DP  RH WIND       PRES   REMARKS
COLO. SPRINGS  FAIR      12  -4  48 SE8       29.92F WCI   0
A. F. ACADEMY  FAIR       4  -5  66 N6        29.88F WCI  -7
SCHRIEVER AFB  NOT AVBL
ELLICOTT       LGT RAIN N/A N/A N/A CALM        N/A
FALCON         FAIR       8  -7  50 CALM      29.89F
FORT CARSON    FAIR      14  -1  49 S14       29.91F WCI   0
LIMON          FAIR       6   3  87 W10       29.95S WCI  -9
MONUMENT HILL  FAIR       5  -6  61 SE7       29.88F WCI  -7
TRINIDAD       FAIR       9  -2  61 W6        29.97F WCI  -1
$$

COZ042>045-048>051-090-091-061200-
...NORTHEAST COLORADO...

CITY           SKY/WX    TMP DP  RH WIND       PRES   REMARKS
GREELEY ARPT   FAIR      14  -8  37 NW10      29.96F WCI   1
AKRON          FAIR      11   3  70 NW8       29.96F WCI  -1
BURLINGTON     FAIR      10   3  73 NW8       30.00R WCI  -2
WRAY           FAIR      10   5  79 W5        30.01  WCI   2
STERLING       FAIR       5   1  85 W5        30.00S WCI  -4
HOLYOKE        FAIR      18   7  62 NW10      30.00S WCI   6
FORT MORGAN    FAIR      10   1  68 N8        29.98S WCI  -3
$$

COZ086-089-092>099-061200-
...SOUTHEAST COLORADO...

CITY           SKY/WX    TMP DP  RH WIND       PRES   REMARKS
PUEBLO         FAIR      11   1  64 CALM      30.00S
LA JUNTA       FAIR      18   6  59 NW3       30.03F
LAMAR          NOT AVBL
SPRINGFIELD      N/A     16   7  67 NW9       30.00R WCI   4
$$




USA.gov is the U.S. government's official web portal to all federal, state and local government web resources and services.